COSMOS 796

Satellite information

Favourite Embed

Satellite Type and Status

PAYLOADIN ORBIT

Key statistics

Satellite COSMOS 796 at a glance.

Uptime

17996

Days in orbit

Revolutions

≈ 12.4

Per day

Orbit

LEO

Low Earth Orbit

Inclination

74.1

Latest

Satellite identification and parameters

Extended collection of information and parameters for COSMOS 796.

Object identification

Identified? True

Debris? False

Object name: COSMOS 796

International designator: 1976-008F

Object number (NORAD): 8612

Object ID (CCSDS): 8612

Country: COMMONWEALTH OF INDEPENDENT STATES (CIS)

Current information (Y/N): Y

RCS size: MEDIUM

Orbital parameters

Period: 115.834 minutes

Inclination: 74.0512 deg

SMA: 7871.365 km

Apoapsis: 1514.47 km

Periapsis: 1471.991 km

RAAN: 126.9183 deg

Eccentricy: 0.0026983

Argument of periapsis: 99.1672 deg

Mean anomaly: 73.6072 deg

Mean motion: 12.43161805 rev/day

Mean motion (dot): 0.0000001 rev/day2

B* drag term: 0.00017916 1/REarth

Two-line elements (TLE)

Creation date: May 6, 2025, 3:54 a.m.

Reference frame: TEME

Reference center: EARTH

Epoch: May 5, 2025, 5:42 p.m. UTC

TLE line 0: 0 COSMOS 796

TLE line 1: 1 08612U 76008F 25125.73810334 .00000010 00000-0 17916-3 0 9990

TLE line 2: 2 08612 74.0512 126.9183 0026983 99.1672 73.6072 12.43161805235905

Live tracking on map

Real-time ground track for satellite COSMOS 796.

In-orbit conjunctions

There are no conjunctions computed for COSMOS 796, at the moment. Check back to stay up to date, as we update our databases every day.

Go to all conjunctions

Associated space launch

Military communications satellites

COSMOS 796 was lifted into orbit during the mission ‘Kosmos-3M | Strela-1M 105-112’, on board a Kosmos-3M space rocket.

The launch took place on Jan. 28, 1976, 10:39 a.m. from 132/1 (132L).

For more information about the launch, click the button.

Launch to space Kosmos-3M | Strela-1M 105-112
Kosmos-3M | Strela-1M 105-112

Agency: N/A

Status: Launch Successful

Launch date: Jan. 28, 1976, 10:39 a.m. UTC

Rocket: Kosmos-3M

Launch pad: 132/1 (132L)

Location: Plesetsk Cosmodrome, Russian Federation

...

Latest news about this satellite

There are no fresh news available about this satellite. Check back as we update our databases every day.


Newsletter sign-up

Weekly statistics, charts and insights to help you stay on top of the space industry.